Location: Unspecified
(0.0000°N, 0.0000°E)
Time: 16:55:15
(UTC+00:00)

Vanguard 3 - Pass Details

Date: 04 February 2023
Orbit: 509 x 3249 km, 33.3° (Epoch: 20 March)

Event Time Altitude Azimuth Distance (km) Brightness Sun altitude
Rises 20:13:18 0° 325° (NW) 4,947 11.4 -28.6°
Maximum altitude 20:23:57 10° 12° (NNE) 4,985 10.9 -31.1°
Enters shadow 20:24:33 10° 14° (NNE) 5,038 10.9 -31.2°
Drops below altitude 10° 20:26:13 10° 20° (NNE) 5,208 - -31.6°
Sets 20:38:22 0° 55° (NE) 6,966 - -34.5°
